Location: Arrien
(43.3167°N, 0.1500°W)
Time: 07:54:54
(UTC+00:00)

Cosmos 1544 Rocket - Pass Details

Date: 06 June 2022
Orbit: 603 x 631 km, 82.5° (Epoch: 02 July)

Event Time Altitude Azimuth Distance (km) Brightness Sun altitude
Rises 23:32:47 0° 2° (N) 2,893 8.4 -23.7°
Reaches altitude 10° 23:35:18 10° 14° (NNE) 1,978 7.1 -23.7°
Maximum altitude 23:39:04 28° 74° (ENE) 1,157 5.0 -23.8°
Enters shadow 23:39:37 27° 87° (E) 1,178 4.9 -23.8°
